Reelfoot Lake Weather Center

Moon Phase Calendar



Reelfoot Lake Water Level
Online Cameras

 


      

Current Conditions in Tiptonville
11/26/2020 3:42:16 PM

54°F
Feels Like 52
Clouds
Humidity
66%
Pressure
30.12"
Wind
1.3 mph (W)
Dew Point
43°F
UV Index
3/10 (Moderate)
Visibility
6 mi

Hourly Forecast

Date & Time Thu, Nov 26
3:00 PM
Thu, Nov 26
4:00 PM
Thu, Nov 26
5:00 PM
Thu, Nov 26
6:00 PM
Thu, Nov 26
7:00 PM
Thu, Nov 26
8:00 PM
Thu, Nov 26
9:00 PM
Thu, Nov 26
10:00 PM
Thu, Nov 26
11:00 PM
Fri, Nov 27
12:00 AM
Fri, Nov 27
1:00 AM
Fri, Nov 27
2:00 AM
Fri, Nov 27
3:00 AM
Fri, Nov 27
4:00 AM
Fri, Nov 27
5:00 AM
Fri, Nov 27
6:00 AM
Fri, Nov 27
7:00 AM
Fri, Nov 27
8:00 AM
Fri, Nov 27
9:00 AM
Fri, Nov 27
10:00 AM
Fri, Nov 27
11:00 AM
Fri, Nov 27
12:00 PM
Fri, Nov 27
1:00 PM
Fri, Nov 27
2:00 PM
Fri, Nov 27
3:00 PM
Fri, Nov 27
4:00 PM
Fri, Nov 27
5:00 PM
Fri, Nov 27
6:00 PM
Fri, Nov 27
7:00 PM
Fri, Nov 27
8:00 PM
Fri, Nov 27
9:00 PM
Fri, Nov 27
10:00 PM
Fri, Nov 27
11:00 PM
Sat, Nov 28
12:00 AM
Sat, Nov 28
1:00 AM
Sat, Nov 28
2:00 AM
Sat, Nov 28
3:00 AM
Sat, Nov 28
4:00 AM
Sat, Nov 28
5:00 AM
Sat, Nov 28
6:00 AM
Sat, Nov 28
7:00 AM
Sat, Nov 28
8:00 AM
Sat, Nov 28
9:00 AM
Sat, Nov 28
10:00 AM
Sat, Nov 28
11:00 AM
Sat, Nov 28
12:00 PM
Sat, Nov 28
1:00 PM
Sat, Nov 28
2:00 PM
Condition
Clouds

Clouds

Clouds

Clouds

Clouds

Clouds

Clouds

Clouds

Clouds

Clouds

Clear

Clear

Clear

Clear

Clear

Clear

Clouds

Clouds

Clouds

Clouds

Clouds

Clouds

Clouds

Clouds

Clouds

Clouds

Clouds

Clouds

Clouds

Clouds

Clouds

Clouds

Clouds

Clouds

Clear

Clear

Clear

Clear

Clear

Clear

Clear

Clear

Clear

Clear

Clear

Clear

Clear

Clear
Temperature 54°F54°F51°F49°F48°F47°F47°F47°F47°F46°F46°F45°F45°F45°F45°F45°F46°F49°F51°F52°F54°F55°F56°F54°F52°F53°F52°F50°F49°F48°F46°F45°F45°F43°F42°F41°F40°F39°F38°F37°F37°F39°F42°F45°F47°F49°F50°F51°F
Feels Like 50°F52°F48°F46°F44°F43°F43°F42°F42°F41°F41°F41°F40°F40°F40°F40°F41°F44°F47°F48°F51°F52°F50°F49°F47°F49°F47°F44°F42°F40°F39°F38°F37°F35°F33°F32°F32°F31°F30°F30°F29°F30°F33°F37°F40°F42°F43°F44°F
Cloudiness 24%21%16%19%58%78%86%90%91%76%0%0%0%0%0%0%86%93%95%97%97%98%100%100%100%93%91%89%47%43%30%23%20%17%0%0%0%0%0%0%0%0%0%0%0%0%0%0%
Visibility 6 mi6 mi6 mi6 mi6 mi6 mi6 mi6 mi6 mi6 mi6 mi6 mi6 mi6 mi6 mi6 mi6 mi6 mi6 mi6 mi6 mi6 mi6 mi6 mi6 mi6 mi6 mi6 mi6 mi6 mi6 mi6 mi6 mi6 mi6 mi6 mi6 mi6 mi6 mi6 mi6 mi6 mi6 mi6 mi6 mi6 mi6 mi6 mi
Precipitation 0%0%0%0%0%0%0%0%0%0%0%0%0%0%0%0%0%0%0%0%0%0%0%0%0%0%0%0%0%0%0%0%0%0%0%0%0%0%0%0%0%0%0%0%0%0%0%0%
Humidity 66%68%74%79%80%82%83%83%83%83%83%82%82%82%82%82%79%75%71%70%64%63%64%69%74%73%76%80%81%78%80%82%80%76%73%72%74%78%80%82%83%76%68%60%54%50%48%47%
Dew Point 43°F44°F43°F43°F42°F42°F42°F42°F42°F41°F41°F40°F40°F40°F40°F40°F40°F41°F42°F42°F42°F43°F44°F44°F44°F45°F45°F44°F43°F42°F41°F40°F39°F37°F34°F33°F33°F33°F33°F32°F32°F32°F32°F32°F30°F30°F29°F29°F
Pressure 30.12"30.09"30.06"30.09"30.09"30.09"30.09"30.09"30.09"30.09"30.09"30.09"30.09"30.09"30.09"30.09"30.09"30.09"30.09"30.09"30.09"30.09"30.06"30.06"30.06"30.09"30.09"30.12"30.15"30.15"30.18"30.18"30.18"30.21"30.21"30.21"30.24"30.24"30.24"30.24"30.27"30.27"30.3"30.3"30.27"30.24"30.21"30.18"
Wind Speed 3.8 mph1.3 mph1.7 mph2.3 mph3.3 mph3.8 mph4.4 mph4.7 mph4.7 mph4.5 mph4 mph4.2 mph4.3 mph4.6 mph4.1 mph4.6 mph5.4 mph5.1 mph3.8 mph2.5 mph1.9 mph3.6 mph6.5 mph7 mph6.3 mph4.5 mph6.3 mph7.9 mph9.3 mph10.2 mph8.9 mph9.3 mph9.8 mph9.8 mph9.9 mph9.3 mph8.7 mph7.7 mph7.1 mph7.1 mph6.9 mph9 mph8.5 mph7.9 mph6.1 mph6.2 mph6.6 mph5.8 mph
Wind
Direction
265°
W
262°
W
70°
ENE
112°
ESE
115°
ESE
110°
ESE
111°
ESE
116°
ESE
125°
SE
138°
SE
138°
SE
136°
SE
129°
SE
131°
SE
140°
SE
147°
SSE
146°
SE
145°
SE
155°
SSE
163°
SSE
199°
SSW
285°
WNW
322°
NW
328°
NNW
354°
N
350°
N
351°
N
354°
N

N

N
359°
N
358°
N
358°
N

N

N

N

N

N

N
12°
NNE
16°
NNE
22°
NNE
29°
NNE
31°
NNE
33°
NNE
30°
NNE
27°
NNE
30°
NNE

Daily Forecast

Date High Low Precip. Humidity
Today
Nov 26

Clouds
54 °F
42 °F
0%
71%
Friday
Nov 27

Clouds
55 °F
45 °F
0%
63%
Saturday
Nov 28

Clear
50 °F
37 °F
0%
50%
Sunday
Nov 29

Rain
46 °F
37 °F
100%
63%
Monday
Nov 30

Rain
42 °F
28 °F
99%
72%
Tuesday
Dec 1

Clear
38 °F
25 °F
0%
70%
Wednesday
Dec 2

Clear
47 °F
30 °F
9%
57%
Thursday
Dec 3

Clear
42 °F
31 °F
15%
68%
Friday
Dec 4

Clear
46 °F
29 °F
0%
62%
Saturday
Dec 5

Clear
50 °F
33 °F
0%
54%
Sunday
Dec 6

Clear
52 °F
35 °F
0%
49%
Monday
Dec 7

Clear
49 °F
35 °F
0%
52%
Tuesday
Dec 8

Rain
44 °F
37 °F
33%
74%
Wednesday
Dec 9

Clouds
40 °F
32 °F
0%
68%
Thursday
Dec 10

Clear
43 °F
28 °F
0%
58%
Friday
Dec 11

Clear
48 °F
30 °F
0%
55%


Temperature 8-14 Day Outlook



Precipitation 8-14 Day Outlook




Quick Links
Reelfoot Lake News
Reelfoot Lake Photos
Reelfoot Lake Videos




About Us
Contact Us
Site Map
Search Site
Advertise With Us
   
Reelfoot.USLakes.info
THE REELFOOT LAKE WEBSITE

Copyright 2020, Lakes Online
Privacy    |    Legal